TimeCST,TemperatureF,Dew PointF,Humidity,Sea Level PressureIn,VisibilityMPH,Wind Direction,Wind SpeedMPH,Gust SpeedMPH,PrecipitationIn,Events,Conditions,WindDirDegrees,DateUTC
12:56 AM,34.0,30.9,89,30.32,10.0,Calm,Calm,-,N/A,,Clear,0,2013-01-23 06:56:00
1:56 AM,36.0,30.9,82,30.31,10.0,Calm,Calm,-,N/A,,Clear,0,2013-01-23 07:56:00
2:56 AM,33.1,30.9,92,30.31,10.0,Calm,Calm,-,N/A,,Clear,0,2013-01-23 08:56:00
3:56 AM,32.0,30.0,92,30.31,10.0,Calm,Calm,-,N/A,,Clear,0,2013-01-23 09:56:00
4:56 AM,32.0,30.0,92,30.32,10.0,Calm,Calm,-,N/A,,Clear,0,2013-01-23 10:56:00
5:56 AM,32.0,30.0,92,30.34,10.0,Calm,Calm,-,N/A,,Partly Cloudy,0,2013-01-23 11:56:00
6:56 AM,37.9,32.0,79,30.36,10.0,NE,3.5,-,N/A,,Mostly Cloudy,50,2013-01-23 12:56:00
7:56 AM,43.0,33.1,68,30.36,10.0,East,3.5,-,N/A,,Clear,100,2013-01-23 13:56:00
8:56 AM,48.9,32.0,52,30.38,10.0,ENE,4.6,-,N/A,,Clear,70,2013-01-23 14:56:00
9:56 AM,55.0,35.1,47,30.39,10.0,Calm,Calm,-,N/A,,Clear,0,2013-01-23 15:56:00
10:56 AM,61.0,39.0,44,30.37,10.0,Calm,Calm,-,N/A,,Clear,0,2013-01-23 16:56:00
11:56 AM,63.0,41.0,45,30.34,10.0,Calm,Calm,-,N/A,,Clear,0,2013-01-23 17:56:00
12:56 PM,64.0,43.0,46,30.30,10.0,Variable,3.5,-,N/A,,Overcast,0,2013-01-23 18:56:00
1:56 PM,64.9,43.0,45,30.28,10.0,Variable,4.6,-,N/A,,Mostly Cloudy,0,2013-01-23 19:56:00
2:56 PM,64.0,46.9,54,30.28,10.0,South,11.5,-,N/A,,Clear,170,2013-01-23 20:56:00
3:56 PM,61.0,48.0,62,30.29,10.0,South,9.2,-,N/A,,Partly Cloudy,190,2013-01-23 21:56:00
4:56 PM,59.0,45.0,60,30.29,10.0,South,5.8,-,N/A,,Scattered Clouds,190,2013-01-23 22:56:00
5:56 PM,55.0,46.0,72,30.27,10.0,South,5.8,-,N/A,,Clear,190,2013-01-23 23:56:00
6:56 PM,55.0,46.9,74,30.28,10.0,SSW,4.6,-,N/A,,Clear,210,2013-01-24 00:56:00
7:56 PM,53.1,46.9,80,30.29,10.0,Calm,Calm,-,N/A,,Clear,0,2013-01-24 01:56:00
8:56 PM,50.0,46.9,89,30.29,10.0,Calm,Calm,-,N/A,,Clear,0,2013-01-24 02:56:00
9:56 PM,51.1,46.9,86,30.28,10.0,SSW,3.5,-,N/A,,Clear,200,2013-01-24 03:56:00
10:56 PM,52.0,48.0,86,30.27,10.0,Calm,Calm,-,N/A,,Clear,0,2013-01-24 04:56:00
11:56 PM,52.0,48.0,86,30.27,10.0,Calm,Calm,-,N/A,,Clear,0,2013-01-24 05:56:00